カタログに戻る

COSMOS 422 DEB

運用中LEO
NORAD 38531·DEBRIS·🇷🇺 Russia

打ち上げ May 22, 1971 から Plesetsk Cosmodrome

Loading…

次のパス (今後24時間)

TLE

最新Source: Space-Track

元期: Sep 14, 2026, 21:09 UTC

1 38531U 71046C   26257.88147578  .00000223  00000-0  25106-3 0  9992
2 38531  74.0200 333.1548 0016712 290.4598  69.4728 13.76501240655311

AllMySatでCOSMOS 422 DEBをリアルタイム追跡

Download on the App Store